CW3684 Weather Reports


Display with metric or nautical units.
time (UTC)temp
F
wind
direction
speed
MPH
gust
MPH
rain 1hr
in
rain 24hr
in
rain mn
in
humidity
%
barometer
mb
20260504194507 42 61 2.0 5.0 0.00 0.17 0.11 97 1012.6
20260504193006 41 54 4.0 9.0 0.01 0.17 0.11 97 1012.5
20260504191505 41 17 2.0 5.0 0.01 0.17 0.11 97 1012.6
20260504190006 41 70 2.0 10.0 0.01 0.17 0.11 97 1012.7
20260504184503 40 70 2.0 9.0 0.01 0.17 0.11 97 1012.8
20260504183103 40 88 4.0 12.0 0.00 0.16 0.10 97 1012.8
20260504181557 40 71 6.0 10.0 0.01 0.16 0.10 97 1013.1
20260504180136 40 18 5.0 10.0 0.01 0.16 0.10 97 1013.1
20260504174553 39 80 3.0 8.0 0.01 0.16 0.10 97 1013.3
20260504173052 39 71 2.0 8.0 0.01 0.15 0.09 97 1013.3
20260504171551 38 90 5.0 7.0 0.01 0.15 0.09 97 1013.5
20260504100114 34 75 2.0 7.0 0.01 0.08 0.02 96 1015.1
20260504081543 34 63 2.0 7.0 0.01 0.07 0.01 95 1015.6
20260504050023 36 42 2.0 8.0 0.01 0.04 0.04 93 1016.1
20260504044532 37 57 3.0 10.0 0.01 0.04 0.04 93 1016.1
20260504043028 37 60 1.0 8.0 0.00 0.03 0.03 93 1016.2
20260504041518 37 49 3.0 9.0 0.01 0.03 0.03 92 1016.3
20260504040020 38 59 2.0 6.0 0.01 0.03 0.03 92 1016.5
20260504034514 38 28 3.0 8.0 0.01 0.03 0.03 92 1016.4
20260504033013 38 51 1.0 9.0 0.01 0.03 0.03 92 1016.6
20260504031514 39 63 1.0 7.0 0.00 0.02 0.02 91 1016.6
20260504030010 39 65 0.0 7.0 0.00 0.02 0.02 91 1016.7
20260504024510 39 17 2.0 7.0 0.00 0.02 0.02 90 1016.8
20260504023009 40 77 1.0 4.0 0.01 0.02 0.02 91 1016.8
20260504021508 40 91 1.0 4.0 0.01 0.02 0.02 91 1016.9
20260504020009 40 53 0.0 5.0 0.01 0.02 0.02 92 1016.8
20260504014507 40 67 1.0 5.0 0.01 0.02 0.02 92 1016.9
20260504013008 40 95 2.0 7.0 0.00 0.01 0.01 91 1016.9
20260504011506 40 49 2.0 4.0 0.01 0.01 0.01 91 1017.0
20260504010005 40 70 1.0 5.0 0.01 0.01 0.01 91 1017.1
20260504004511 40 71 0.0 6.0 0.01 0.01 0.01 90 1017.1
20260504003004 40 71 0.0 3.0 0.01 0.01 0.01 90 1017.3
20260504001505 40 67 2.0 4.0 0.00 0.00 0.00 89 1017.5
20260504000003 40 86 3.0 10.0 0.00 0.00 0.00 88 1017.7
20260503234502 41 121 3.0 7.0 0.00 0.00 0.00 87 1017.8
20260503233001 41 57 2.0 6.0 0.00 0.00 0.00 85 1017.8
20260503231501 42 49 1.0 5.0 0.00 0.00 0.00 85 1017.8
20260503230116 42 59 2.0 6.0 0.00 0.00 0.00 84 1017.9
20260503224604 42 31 1.0 8.0 0.00 0.00 0.00 84 1017.8
20260503223101 42 63 4.0 12.0 0.00 0.00 0.00 84 1018.0
20260503221601 42 154 3.0 13.0 0.00 0.00 0.00 82 1017.9
20260503220057 42 171 9.0 13.0 0.00 0.00 0.00 82 1017.9
20260503214555 42 84 5.0 12.0 0.00 0.00 0.00 80 1018.0
20260503213101 43 143 7.0 12.0 0.00 0.00 0.00 75 1017.9
20260503211610 43 99 5.0 10.0 0.00 0.00 0.00 74 1017.9
20260503210051 44 40 2.0 10.0 0.00 0.00 0.00 72 1017.9
20260503204549 44 169 4.0 12.0 0.00 0.00 0.00 65 1017.9
20260503203049 44 101 9.0 18.0 0.00 0.00 0.00 64 1017.6
20260503201547 45 17 4.0 17.0 0.00 0.00 0.00 60 1017.7
20260503200055 46 90 5.0 16.0 0.00 0.00 0.00 59 1017.6